Theta_e
310 308 308 309 307 306 302 302 304 303 304 302 297 295 300 304 306 306 307 305 304 305 304 294 289 291 292 300 301 302 301 300 300 304 303 302 305 308 309 305 309 306 308 313
309 309 308 307 307 307 303 302 302 303 304 300 297 300 303 304 305 305 307 305 305 307 305 300 299 298 300 301 301 302 302 299 298 301 303 304 304 306 306 305 304 309 311 315
310 310 310 309 307 305 305 302 303 303 303 302 300 301 302 303 303 304 305 304 304 306 305 302 301 302 301 301 301 303 299 298 300 303 305 303 306 308 308 306 309 311 312 313
309 310 309 307 307 304 303 300 298 301 303 302 299 299 301 303 303 303 304 303 303 307 306 306 305 302 299 300 300 298 296 301 301 302 302 301 307 307 309 310 308 313 311 311
310 309 308 307 303 304 301 301 299 300 297 299 298 297 301 302 300 302 303 303 303 303 304 305 305 305 301 302 299 291 295 298 302 305 304 304 308 307 306 308 309 310 309 310
309 309 309 308 301 304 299 300 300 299 296 296 297 296 298 300 299 299 301 302 302 302 303 303 303 304 304 302 301 297 298 299 302 302 304 305 307 307 306 308 308 308 310 308
308 308 307 306 302 304 300 300 300 299 296 297 297 296 297 298 298 299 299 302 302 302 303 304 305 304 302 301 300 300 303 303 303 301 300 305 310 306 306 307 308 306 307 307
308 307 304 301 301 304 301 299 299 298 294 295 295 295 295 296 297 296 299 300 301 302 304 305 305 305 306 305 304 304 303 303 304 305 307 308 308 308 307 307 309 307 307 306
308 307 305 304 301 301 301 298 299 298 296 294 295 294 295 293 294 295 298 299 300 303 302 306 305 303 305 305 306 305 305 304 303 303 304 305 308 306 306 305 308 308 306 306
305 305 304 304 301 299 300 297 298 298 296 295 295 294 294 295 294 294 297 300 301 302 301 303 302 302 302 304 304 305 305 304 306 307 305 304 304 305 306 307 305 307 307 306
305 305 305 303 303 299 299 298 297 297 296 295 296 296 296 296 295 295 297 300 300 299 301 301 301 301 300 302 301 302 302 303 304 303 305 305 305 305 309 306 307 307 308 308
305 305 305 304 303 301 298 298 297 298 297 296 296 296 296 297 297 298 298 298 299 300 299 298 298 301 296 298 301 299 303 300 302 301 302 302 306 306 307 307 308 307 308 307
305 305 304 303 303 302 299 297 297 297 296 295 295 296 297 297 298 299 301 300 300 300 299 297 297 301 296 299 300 300 300 299 301 303 302 304 306 306 307 307 307 307 307 308
304 305 305 303 303 298 297 297 297 296 296 294 294 295 295 296 298 298 300 300 300 300 300 299 297 301 298 297 298 299 299 298 299 300 302 304 305 306 305 306 306 306 307 307
307 306 305 304 302 302 298 297 296 297 297 295 295 295 295 296 297 298 299 299 300 300 299 297 298 298 298 296 296 296 298 299 300 301 302 303 304 304 304 304 305 305 305 306
303 305 305 303 302 299 296 297 296 297 298 296 294 295 295 295 296 297 298 299 299 299 298 297 297 298 299 298 298 299 301 302 302 303 304 304 304 304 304 304 304 304 304 304
301 303 304 303 301 296 297 297 297 297 298 296 294 294 295 295 295 295 295 296 296 296 296 295 296 297 299 297 297 298 302 303 303 304 303 303 303 304 303 303 303 303 303 303
298 303 303 302 300 296 297 297 297 298 297 296 289 293 294 294 295 295 296 295 295 295 295 295 295 297 297 297 297 299 302 302 302 302 302 303 303 302 302 302 302 302 302 302
299 303 302 301 298 297 297 297 297 297 298 296 292 291 292 294 295 295 296 296 293 295 294 294 296 296 297 297 297 299 301 302 303 302 301 300 300 300 300 300 300 300 300 299
301 302 300 299 299 298 297 298 298 298 298 296 293 293 293 295 294 293 294 295 291 288 294 295 295 296 297 298 299 299 302 301 301 300 299 299 299 299 299 298 298 297 297 297
301 301 299 298 299 298 297 297 294 296 294 295 293 294 292 293 291 292 294 289 289 292 293 293 292 294 293 298 299 299 301 301 300 299 299 298 296 294 292 291 291 290 290 291
300 300 298 296 298 297 297 294 292 291 293 292 291 293 295 294 295 293 292 290 288 291 293 294 292 292 296 297 299 299 300 300 299 297 295 292 291 291 290 290 290 290 289 289
299 300 297 297 296 297 295 292 287 285 291 293 293 293 294 294 294 292 287 288 291 294 297 296 293 294 296 297 298 298 298 297 295 293 291 291 290 290 290 290 289 289 289 289
300 297 297 297 296 295 292 290 289 294 294 293 295 292 293 294 292 290 290 292 293 298 296 293 288 296 298 298 298 298 297 294 292 291 290 290 290 289 289 290 290 289 289 289
298 297 299 297 297 295 294 294 294 294 294 295 293 291 293 288 288 291 291 293 295 295 294 292 295 297 298 297 297 297 294 292 291 290 290 289 289 290 291 291 290 288 287 287
299 296 295 292 292 294 293 294 294 294 294 296 294 287 287 287 290 290 291 291 292 292 290 295 296 298 298 298 296 293 291 291 290 289 289 289 291 291 291 290 288 287 286 286
296 293 295 294 293 294 295 295 294 294 294 292 288 289 289 286 284 288 288 291 291 291 294 297 298 299 297 296 292 291 291 290 288 288 289 291 291 291 290 289 289 289 287 287
Wind_Speed
12 17 27 38 33 33 25 16 4 16 18 4 3 1 3 2 5 4 1 3 3 4 3 2 1 3 6 4 4 6 2 1 2 4 4 3 2 6 3 3 4 3 1 4
27 26 47 26 28 17 25 8 7 14 11 2 2 3 1 3 4 2 1 2 0 2 2 3 2 1 2 6 5 3 5 3 4 8 3 3 4 11 6 2 1 6 3 4
33 32 17 20 19 24 14 8 3 4 5 2 2 3 2 3 3 3 4 3 3 2 2 3 2 2 2 6 5 8 1 2 2 3 3 4 6 14 14 3 5 3 5 8
23 13 13 18 19 18 8 5 2 4 3 3 2 0 2 4 3 3 6 4 3 3 2 2 3 2 4 3 8 5 3 3 3 3 4 3 5 8 13 14 4 5 5 6
12 13 20 18 13 10 14 4 5 5 2 2 4 3 2 3 2 1 2 3 5 4 4 2 2 1 4 3 3 3 3 2 3 5 6 4 6 14 8 8 7 6 5 8
7 8 17 16 15 6 9 10 8 2 2 2 3 3 4 5 6 3 3 3 4 5 3 7 7 6 5 3 2 3 3 2 2 3 5 5 4 11 6 4 7 3 6 4
12 9 15 17 18 7 14 9 4 3 1 1 1 3 2 4 1 5 3 5 3 3 11 12 9 9 7 5 2 2 2 1 1 1 5 5 1 1 2 5 5 4 2 5
11 9 15 16 18 12 4 8 5 3 3 3 2 4 5 7 6 4 5 3 5 8 2 2 2 0 1 3 3 3 3 2 3 2 3 2 2 4 4 4 4 3 4 7
11 11 16 16 12 18 6 7 6 3 9 1 3 4 4 3 2 3 3 5 6 4 0 1 2 2 2 1 1 2 2 1 2 1 3 1 1 4 6 2 4 11 12 8
12 12 12 15 10 10 8 5 4 3 6 3 5 2 5 5 3 3 3 4 3 3 1 1 1 1 3 3 3 0 1 2 3 2 2 4 3 7 2 3 2 9 10 11
9 12 12 14 10 8 13 2 3 1 5 6 4 4 5 5 5 4 7 4 2 2 1 2 2 2 3 1 4 3 4 3 2 2 2 1 3 2 1 0 2 5 8 10
8 11 16 18 13 8 11 6 2 4 4 7 8 7 6 6 5 5 11 1 3 4 3 1 2 2 2 3 2 1 1 4 3 5 3 1 2 5 4 2 1 5 8 8
13 17 15 22 13 10 10 7 6 6 7 7 5 5 5 6 6 7 5 4 5 4 3 5 2 2 3 3 4 3 3 4 3 2 3 4 4 4 3 3 4 5 6 6
18 22 21 22 18 11 12 6 9 5 7 5 2 5 5 4 6 6 7 3 7 6 3 2 2 2 4 3 2 3 4 7 5 2 3 2 4 6 3 1 1 3 4 5
2 8 19 20 20 12 8 6 11 6 2 5 5 6 3 4 3 4 6 8 8 5 2 1 2 2 2 1 1 3 9 6 5 5 10 5 7 7 3 1 2 3 3 4
7 16 14 18 18 13 10 6 15 8 7 5 3 3 4 6 5 5 6 8 6 3 3 2 2 3 2 2 3 5 13 10 8 6 13 7 8 5 5 2 4 4 6 7
11 17 19 20 16 16 8 3 4 19 10 4 5 3 6 6 5 3 4 5 3 3 3 2 2 3 3 2 3 4 14 13 10 12 11 5 8 6 7 7 6 6 7 8
15 17 18 24 21 16 14 4 6 17 8 4 3 2 4 9 4 3 3 3 3 2 2 2 3 2 2 4 10 6 15 15 14 12 8 6 7 7 7 7 7 7 9 9
13 20 27 26 18 9 11 6 11 16 5 6 4 6 4 11 5 4 3 3 1 2 2 3 4 2 5 7 12 18 22 17 14 13 8 6 6 6 7 6 7 8 10 11
21 35 14 9 11 12 13 9 8 9 7 8 3 8 3 8 5 4 4 1 2 1 3 5 3 4 20 10 10 18 22 15 14 14 8 7 6 6 6 8 10 12 15 17
36 17 10 11 22 17 8 6 6 8 3 11 9 9 7 11 4 3 5 3 1 1 3 3 3 4 4 16 16 16 21 18 13 9 6 6 4 3 4 7 10 12 14 17
25 14 18 18 8 6 5 4 1 4 7 11 11 10 8 10 6 5 5 3 2 3 6 2 3 4 8 19 19 21 21 18 13 10 7 4 2 4 8 11 14 15 17 17
23 10 8 8 8 5 8 9 5 2 9 16 16 6 10 8 5 5 3 4 4 7 2 4 5 5 13 22 24 23 19 16 12 9 6 2 3 7 10 13 14 16 17 16
14 10 7 6 6 6 5 4 5 8 10 27 23 9 7 6 4 3 5 2 3 4 4 7 3 17 22 25 24 22 19 15 10 6 3 3 5 7 10 13 15 17 17 17
9 9 7 7 7 5 4 7 8 9 32 36 14 7 6 2 4 2 4 3 5 6 5 3 9 22 28 28 24 20 17 13 8 4 3 4 7 10 11 12 12 13 13 13
8 9 3 2 5 4 8 10 8 21 32 26 5 4 3 2 5 4 8 9 7 4 4 9 22 28 29 27 23 19 14 9 6 3 2 5 9 11 12 12 11 10 11 11
10 6 15 15 5 10 14 18 21 29 29 4 4 5 6 4 2 3 5 6 4 7 13 21 28 32 30 25 21 16 11 8 4 1 2 5 7 9 10 9 9 10 10 12
Wind_Direction
17 136 127 135 138 136 143 97 95 157 151 93 55 200 207 211 102 70 98 98 105 152 157 92 136 222 209 340 317 338 328 10 320 270 253 226 274 336 4 56 345 43 196 78
71 122 141 132 142 148 136 82 88 158 156 142 239 266 307 119 136 150 18 92 178 129 119 72 129 242 310 334 5 351 329 11 351 346 343 24 20 2 342 66 35 21 37 40
94 100 116 141 142 133 125 116 110 119 212 183 171 139 79 89 50 113 86 84 65 105 74 55 118 13 326 333 343 338 10 58 115 154 257 319 345 6 15 55 70 64 37 33
58 114 132 141 137 126 63 73 115 147 168 224 189 1 105 112 91 18 44 30 170 139 84 135 93 122 349 350 351 13 69 72 357 318 292 307 15 28 30 47 81 45 52 42
78 104 124 137 143 109 53 79 109 113 68 140 139 329 150 123 95 36 64 101 41 74 95 28 103 50 13 23 9 28 3 72 355 6 356 349 30 14 33 40 42 69 58 48
338 129 157 155 142 108 55 55 91 94 357 111 124 207 166 164 135 30 76 152 91 70 106 105 102 98 96 80 56 1 11 61 44 314 330 324 16 353 2 41 38 9 46 333
176 161 171 168 157 131 53 50 58 82 83 114 195 148 92 124 43 138 74 88 91 157 121 106 100 95 99 92 71 136 360 9 64 301 356 45 314 338 38 56 42 21 18 355
203 174 158 163 183 183 72 40 41 80 108 117 70 97 107 99 75 66 88 64 120 150 152 151 125 126 335 12 22 32 50 83 62 80 57 351 324 3 6 10 2 35 355 355
199 192 192 182 193 199 184 33 34 58 124 206 122 114 139 134 106 31 77 119 144 154 108 276 131 145 150 343 28 342 359 100 119 154 81 124 5 350 348 314 24 9 5 358
218 216 209 200 190 199 189 32 20 56 103 127 151 140 172 159 125 113 138 169 161 172 126 152 142 194 152 157 166 155 26 24 90 82 107 292 279 310 349 43 258 347 1 2
247 258 235 205 214 230 206 294 327 49 103 124 147 149 156 161 180 149 157 109 230 94 168 159 190 146 225 117 170 185 178 140 211 141 109 245 339 342 108 239 346 5 6 11
271 258 252 214 212 227 207 228 221 135 108 126 128 125 155 184 178 161 166 180 164 178 109 193 126 156 124 167 224 50 209 186 188 180 208 202 38 102 94 93 62 14 18 23
249 245 252 214 206 206 217 191 169 140 121 117 135 129 145 164 176 173 177 201 187 192 169 152 156 163 136 176 233 172 225 177 180 114 210 196 161 131 126 52 51 26 20 18
254 241 236 217 208 206 190 166 177 161 128 117 164 171 178 186 192 198 203 172 172 156 151 113 133 180 191 213 194 192 193 147 171 247 254 190 171 167 151 116 9 342 339 329
236 250 226 214 201 203 184 194 183 166 178 142 146 150 160 165 159 196 194 180 167 158 137 95 206 154 142 277 47 241 189 178 166 212 186 157 170 176 156 151 333 340 343 351
244 223 227 209 203 195 177 206 206 192 177 137 137 150 158 147 142 153 148 157 158 154 160 184 223 192 183 156 237 247 195 192 180 169 166 160 159 203 164 221 279 287 287 292
244 225 220 215 207 198 219 251 192 189 178 170 110 161 175 156 155 164 147 149 150 163 157 189 194 211 206 205 232 241 188 183 170 158 160 167 184 193 201 225 237 276 292 285
230 228 218 210 209 213 236 235 195 177 176 166 116 124 169 189 173 172 160 154 156 164 174 186 199 188 218 251 229 195 177 173 173 173 179 170 182 217 243 246 241 247 264 274
219 215 204 198 199 208 231 192 169 179 203 168 157 154 194 168 159 155 160 167 111 190 211 230 162 198 225 224 198 187 181 181 189 189 200 209 220 233 241 254 262 271 276 283
208 193 178 184 189 184 171 175 177 195 214 209 144 138 146 159 154 156 131 160 157 174 238 157 208 254 247 228 203 198 186 182 176 174 196 212 222 241 258 275 285 290 291 290
180 188 176 167 162 157 215 207 174 184 224 193 160 164 141 180 139 165 193 176 160 181 244 153 256 266 230 195 187 180 184 187 187 198 201 197 208 240 283 298 302 302 298 295
187 174 142 141 166 183 205 211 223 197 214 161 146 161 135 150 154 123 169 134 70 225 152 163 259 246 192 175 172 168 174 179 181 183 181 185 235 294 303 305 302 299 297 299
171 174 156 181 167 190 200 203 243 217 168 169 160 141 142 134 163 100 109 107 198 127 199 234 228 184 172 167 163 161 166 170 173 174 181 217 289 303 301 300 299 298 298 299
189 166 185 215 181 215 201 196 177 184 173 152 147 124 135 132 127 144 116 197 121 199 229 235 236 188 170 167 167 167 166 168 172 180 210 278 300 305 307 307 307 304 303 301
189 186 210 206 209 175 183 204 156 154 153 146 122 93 119 115 111 166 115 141 223 214 228 225 191 171 167 167 169 170 169 168 175 184 236 294 319 323 322 318 315 308 311 313
198 211 190 193 141 153 159 173 156 156 155 152 137 124 100 176 141 137 204 151 217 232 213 180 163 166 167 165 165 166 168 171 180 203 280 328 337 337 332 327 323 319 311 310
186 213 209 185 209 183 176 175 177 168 164 173 138 125 188 101 81 224 193 202 212 195 171 163 166 164 163 163 165 168 169 171 172 183 356 356 357 355 349 350 349 348 340 329